Location: ???? ?????
(30.0052°N, 31.2891°E)
Time: 20:20:11
(UTC+00:00)

ACS3 Solar Sail - Pass Details

Date: 26 September 2024
Orbit: 960 x 1036 km, 97.4° (Epoch: 09 October)

Event Time Altitude Azimuth Distance (km) Brightness Sun altitude
Exits shadow 16:57:55 20° 71° (ENE) 2,201 3.1 -16.4°
Maximum altitude 16:58:11 20° 68° (ENE) 2,199 3.1 -16.4°
Drops below altitude 10° 17:02:35 10° 24° (NNE) 2,839 4.1 -17.4°
Sets 17:05:47 0° 8° (N) 3,790 4.9 -18.0°
